TimeEDT,TemperatureF,Dew PointF,Humidity,Sea Level PressureIn,VisibilityMPH,Wind Direction,Wind SpeedMPH,Gust SpeedMPH,PrecipitationIn,Events,Conditions,WindDirDegrees,DateUTC
12:53 AM,75.0,64.0,69,30.17,10.0,ENE,9.2,-,N/A,,Partly Cloudy,70,2012-03-17 04:53:00
1:53 AM,75.0,64.0,69,30.15,10.0,ENE,10.4,-,N/A,,Mostly Cloudy,70,2012-03-17 05:53:00
2:53 AM,73.9,63.0,68,30.13,10.0,ENE,6.9,-,N/A,,Partly Cloudy,70,2012-03-17 06:53:00
3:53 AM,75.0,63.0,66,30.12,10.0,ENE,8.1,-,N/A,,Partly Cloudy,70,2012-03-17 07:53:00
4:53 AM,75.0,64.0,69,30.11,10.0,East,6.9,-,N/A,,Scattered Clouds,80,2012-03-17 08:53:00
5:03 AM,75.2,64.4,69,30.11,10.0,ENE,6.9,-,N/A,,Mostly Cloudy,70,2012-03-17 09:03:00
5:16 AM,75.2,64.4,69,30.11,10.0,ENE,5.8,-,N/A,,Mostly Cloudy,70,2012-03-17 09:16:00
6:53 AM,73.9,64.0,71,30.14,10.0,ENE,4.6,-,N/A,,Clear,70,2012-03-17 10:53:00
7:41 AM,75.2,64.4,69,30.15,10.0,ENE,8.1,-,N/A,,Mostly Cloudy,70,2012-03-17 11:41:00
7:53 AM,75.0,64.0,69,30.16,10.0,ENE,9.2,-,N/A,,Mostly Cloudy,60,2012-03-17 11:53:00
8:04 AM,75.2,64.4,69,30.16,10.0,ENE,8.1,-,N/A,,Scattered Clouds,60,2012-03-17 12:04:00
8:53 AM,75.9,64.0,67,30.17,10.0,ENE,5.8,-,N/A,,Clear,70,2012-03-17 12:53:00
9:53 AM,78.1,64.0,62,30.19,10.0,NE,10.4,-,N/A,,Partly Cloudy,50,2012-03-17 13:53:00
10:44 AM,78.8,68.0,69,30.20,10.0,NE,10.4,-,N/A,,Mostly Cloudy,50,2012-03-17 14:44:00
10:53 AM,77.0,66.9,71,30.20,10.0,NE,12.7,-,N/A,,Mostly Cloudy,40,2012-03-17 14:53:00
11:05 AM,78.8,68.0,69,30.20,10.0,NE,11.5,-,N/A,,Mostly Cloudy,50,2012-03-17 15:05:00
11:33 AM,80.6,66.2,61,30.20,10.0,NE,11.5,-,N/A,,Mostly Cloudy,40,2012-03-17 15:33:00
11:42 AM,80.6,64.4,58,30.20,10.0,ENE,11.5,-,N/A,,Mostly Cloudy,60,2012-03-17 15:42:00
11:49 AM,80.6,66.2,61,30.20,10.0,NE,11.5,-,N/A,,Mostly Cloudy,50,2012-03-17 15:49:00
11:53 AM,80.1,66.0,62,30.20,10.0,ENE,11.5,-,N/A,,Mostly Cloudy,60,2012-03-17 15:53:00
12:53 PM,81.0,63.0,54,30.18,10.0,NE,13.8,-,N/A,,Mostly Cloudy,50,2012-03-17 16:53:00
1:53 PM,82.0,63.0,52,30.16,10.0,East,13.8,19.6,N/A,,Partly Cloudy,90,2012-03-17 17:53:00
2:53 PM,82.0,63.0,52,30.13,10.0,East,11.5,21.9,N/A,,Clear,90,2012-03-17 18:53:00
3:53 PM,81.0,62.1,52,30.12,10.0,East,12.7,20.7,N/A,,Clear,80,2012-03-17 19:53:00
4:53 PM,80.1,63.0,56,30.11,10.0,ENE,13.8,19.6,N/A,,Clear,70,2012-03-17 20:53:00
5:53 PM,79.0,62.1,56,30.12,10.0,East,9.2,18.4,N/A,,Clear,80,2012-03-17 21:53:00
6:53 PM,77.0,61.0,58,30.12,10.0,East,12.7,18.4,N/A,,Clear,90,2012-03-17 22:53:00
7:53 PM,75.9,62.1,62,30.12,10.0,East,11.5,-,N/A,,Partly Cloudy,80,2012-03-17 23:53:00
8:53 PM,75.9,61.0,60,30.14,10.0,East,13.8,19.6,N/A,,Clear,80,2012-03-18 00:53:00
9:53 PM,75.9,61.0,60,30.16,10.0,ENE,9.2,-,N/A,,Clear,70,2012-03-18 01:53:00
10:53 PM,75.9,62.1,62,30.17,10.0,ENE,10.4,-,N/A,,Partly Cloudy,60,2012-03-18 02:53:00
11:53 PM,75.0,61.0,62,30.18,10.0,ENE,9.2,-,N/A,,Clear,70,2012-03-18 03:53:00